{"data":{"norad_id":61208,"epoch":"2026-09-21T08:29:48.159168Z","epoch_age_seconds":118252,"freshness":"FRESH","line1":"1 61208U 24171J   26264.35402962 -.00000826  00000+0 -19627-5 0  9990","line2":"2 61208  53.1595 291.4406 0000964  63.9895 296.1222 15.69705475115136","mean_motion":15.69705475,"eccentricity":9.64e-5,"inclination_deg":53.1595,"raan_deg":291.4406,"arg_perigee_deg":63.9895,"mean_anomaly_deg":296.1222,"bstar":-1.9627e-6,"rev_number":11513,"period_min":91.736954666607,"perigee_km":359.090167955,"apogee_km":360.38923058262,"semimajor_km":6737.8766992688,"source":"CELESTRAK","updated_at":"2026-09-22T09:00:49.340291Z"}}